Regional Weather Roundup
Issued by NWS

Home | Current Version | Previous Version | Text Only | Print | Product List | Glossary Off
Versions: 1 2 3 4 5 6 7 8 9 10 11 12 13 14 15 16 17 18 19 20 21 22 23 24 25 26 27 28 29 30 31 32 33 34 35 36 37 38 39 40 41 42 43 44 45 46 47 48 49 50

000
ASUS43 KLOT 271803
RWRIL

ILLINOIS REGIONAL WEATHER ROUNDUP
NATIONAL WEATHER SERVICE CHICAGO/ROMEOVILLE IL
1200 PM CST MON FEB 27 2017

NOTE: "FAIR" INDICATES FEW OR NO CLOUDS BELOW 12,000 FEET WITH NO
SIGNIFICANT WEATHER AND/OR OBSTRUCTIONS TO VISIBILITY.

* THESE STATIONS ARE NOT UNDER NWS QUALITY CONTROL. THEY ALSO MAY NOT
  REPORT WEATHER SUCH AS PRECIPITATION OR FOG.

ILZ001-002-007-009-015-016-024-271900-
NORTHWEST ILLINOIS

CITY           SKY/WX    TMP DP  RH WIND       PRES   REMARKS
MOLINE         SUNNY     51  36  56 SW10      30.09F
6HR MIN TEMP:  30; 6HR MAX TEMP:  51;

STERLING*      SUNNY     49  37  63 VRB7      30.12F
$$

ILZ003-004-008-010-011-017-018-271900-
NORTH CENTRAL ILLINOIS

CITY           SKY/WX    TMP DP  RH WIND       PRES   REMARKS
ROCKFORD       MOSUNNY   49  34  56 S17       30.13F
6HR MIN TEMP:  24; 6HR MAX TEMP:  49;

FREEPORT*      SUNNY     46  34  63 S12G18    30.13F
ROCHELLE*      MOSUNNY   47  37  70 S13       30.13F
DE KALB*       PTSUNNY   46  36  68 S10G18    30.14F
PERU*          MOSUNNY   48  34  58 SW10      30.13F
$$

ILZ005-006-012>014-019>023-271900-
NORTHEAST ILLINOIS

CITY           SKY/WX    TMP DP  RH WIND       PRES   REMARKS
CHICAGO-OHARE  MOSUNNY   49  32  52 S16       30.14S
6HR MIN TEMP:  28; 6HR MAX TEMP:  50;

CHICAGO-MIDWAY PTSUNNY   48  33  56 S12G20    30.15F
6HR MIN TEMP:  34; 6HR MAX TEMP:  49;

AURORA         PTSUNNY   48  36  63 S10       30.15S
6HR MIN TEMP:  27; 6HR MAX TEMP:  48;

LANSING*       CLOUDY    48  37  67 S7        30.16F
JOLIET*        CLOUDY    50  37  61 S9G16     30.15F
WAUKEGAN       SUNNY     43  33  68 SE8       30.14S
6HR MIN TEMP:  22; 6HR MAX TEMP:  43;

DUPAGE AIRPORT MOSUNNY   47  33  58 S13       30.14S
6HR MIN TEMP:  24; 6HR MAX TEMP:  48;

KANKAKEE*      PTSUNNY   53  35  50 S9G20     30.15F
WHEELING       SUNNY     48  30  49 S10       30.15F
6HR MIN TEMP:  23; 6HR MAX TEMP:  48;

MORRIS*        PTSUNNY   51  36  55 S13       30.13F
ROMEOVILLE*    PTSUNNY   48  39  70 S10G16    30.15F
NORTHERLY ISL    N/A     41  34  76 SE2         N/A
$$

LMZ740>746-271900-
SOUTHERN LAKE MICHIGAN

STATION/POSITION SKY/WX   TEMP    WIND        PRES    VSBY  WAVE
                          AIR SEA DIR/SP/G                  HT/PER
                          (F)     (DEG/KT/KT) (MB)    (MI)  (FT/S)
HARRISON CRIB              40     130/ 12/ 13   N/A
BURNHAM HARBOR             41     110/  7/ 10   N/A
CALUMET HARBOR             46     150/  8/ 12 1020.8F
BURNS HARBOR               46     180/  8/ 16 1022.0F
MICHIGAN CITY              45     170/ 11/ 13   N/A
$$

ILZ025>027-034>036-040-047-049-050-058-095>099-271900-
WEST-CENTRAL ILLINOIS

CITY           SKY/WX    TMP DP  RH WIND       PRES   REMARKS
QUINCY         SUNNY     54  33  45 SW12      30.09F
GALESBURG*     MOSUNNY   50  37  60 S6        30.11F
MACOMB*        SUNNY     52  34  50 S8        30.13F
JACKSONVILLE*  SUNNY     55  36  48 SW8       30.11F
PITTSFIELD*    SUNNY     55  34  45 S5        30.11F
$$

ILZ028>032-037-038-041>044-048-051>054-059>061-271900-
CENTRAL ILLINOIS

CITY           SKY/WX    TMP DP  RH WIND       PRES   REMARKS
PONTIAC        PTSUNNY   54  34  47 SW12      30.14F
BLOOMINGTON    PTSUNNY   54  36  50 SW12      30.12F
DECATUR        PTSUNNY   54  37  52 SW9G16    30.12F
PEORIA         SUNNY     53  34  48 S8        30.12F
6HR MIN TEMP:  27; 6HR MAX TEMP:  53;

LACON*         SUNNY     52  35  52 SW6       30.12F
LINCOLN*       MOSUNNY   55  39  54 S9        30.12F
SPRINGFIELD    MOSUNNY   57  38  48 S9        30.12F
6HR MIN TEMP:  34; 6HR MAX TEMP:  57;

TAYLORVILLE    MOSUNNY   56  38  50 S10G21    30.12F
6HR MIN TEMP:  38; 6HR MAX TEMP:  56;

$$

ILZ033-039-045-046-055>057-062-063-271900-
EAST-CENTRAL ILLINOIS

CITY           SKY/WX    TMP DP  RH WIND       PRES   REMARKS
CHAMPAIGN      MOSUNNY   55  35  47 S8G21     30.14F
RANTOUL*       MOSUNNY   56  37  48 S12       30.14S
MATTOON        MOSUNNY   54  40  59 S8        30.13F
PARIS*         MOSUNNY   54  39  56 S8        30.16F
$$

ILZ079-100>102-271900-
SOUTHWEST ILLINOIS

CITY           SKY/WX    TMP DP  RH WIND       PRES   REMARKS
ALTON          MOSUNNY   55  39  54 S9        30.12F
BELLEVILLE     SUNNY     59  42  53 VRB6      30.10F
CAHOKIA*       SUNNY     59  38  45 VRB6      30.11F
SPARTA*        MOSUNNY   57  43  57 S6        30.13F
$$

ILZ064>066-069>071-074>076-080>082-084>086-088>090-092>094-271900-
SOUTH-CENTRAL ILLINOIS

CITY           SKY/WX    TMP DP  RH WIND       PRES   REMARKS
CARBONDALE     PTSUNNY   59  46  62 S12       30.14F
6HR MIN TEMP:  40; 6HR MAX TEMP:  59;

CAIRO*         CLOUDY    57  47  70 SW8       30.15F
EFFINGHAM*     MOSUNNY   56  42  59 SE7       30.14F
MARION         PTSUNNY   59  45  58 S9        30.15F
MT. VERNON     PTSUNNY   56  43  61 S6        30.14F
CENTRALIA*     MOSUNNY   57  43  61 S8G16     30.12F
SALEM*         PTSUNNY   58  41  52 SE8       30.13F
METROPOLIS*    CLOUDY    58  46  66 CALM      30.15F
$$

ILZ067-068-072-073-078-083-087-091-271900-
SOUTHEAST ILLINOIS

CITY           SKY/WX    TMP DP  RH WIND       PRES   REMARKS
LAWRENCEVILLE  PTSUNNY   53  43  68 SE14      30.18F
FLORA*         MOSUNNY   55  43  63 S10       30.16F
FAIRFIELD*     PTSUNNY   54  45  70 S7        30.14F
HARRISBURG*    CLOUDY    55  46  72 SW6       30.15F
ROBINSON*      PTSUNNY   52  41  66 S6        30.17F
CARMI*         CLOUDY    53  45  76 S10       30.16F
$$

ABBREVIATIONS USED IN REMARKS
   TC - TEMPERATURE IN CELSIUS
  WCI - WIND CHILL INDEX
   HX - HEAT INDEX
  VSB - VISIBILITY
$$




USA.gov is the U.S. government's official web portal to all federal, state and local government web resources and services.